APL Coral — WDF6832 — position and weather

sailwx.info

Track history (hours):
 
Tides and Currents Weather Stations Pressure Air Temp Water Temp Dewpoint Dewpoint Depression Visibility Wind Speed Wind Dir Waves Ship Positions

APL Coral

More information available from US FCC via Universal Licensing System and Coast Guard Vessel Documentation Center.

Last reported at 2014-Jul-24 03:13 UTC. Time now 2014-Jul-24 12:59 UTC.
Position N 43°59' W 061°48'.

Length 275 m; draft 13 m.

Type: Cargo ship. MMSI: 367478280.

Date/timePositionNaut miles runAvg speedWind from/ knotsBaromVisibWave heightAir tempDewpointWater temp
2014-Jul-24 03:13N 43°59' W 061°48'  
2014-Jul-18 19:23N 36°33' W 009°52'2519.3
2014-Jul-18 18:04N 36°20' W 009°24'6718.9
2014-Jul-18 14:34N 35°58' W 008°06'2019.5
2014-Jul-18 13:33N 35°58' W 007°42'2019.7
2014-Jul-18 12:32N 35°58' W 007°17'1919.5
2014-Jul-18 11:33N 35°59' W 006°54'7318.0
2014-Jul-18 07:31N 36°01' W 005°24'16918.8
2014-Jul-17 22:32N 36°30' W 001°57'2920.3
2014-Jul-17 21:06N 36°40' W 001°23'1319.9
2014-Jul-17 20:28N 36°45' W 001°09'10219.9
2014-Jul-17 15:20N 37°22' E 000°51'3720.2
2014-Jul-17 13:31N 37°36' E 001°34'1920.1
2014-Jul-17 12:33N 37°42' E 001°57'2020.1
2014-Jul-17 11:33N 37°50' E 002°21'2020.1
2014-Jul-17 10:33N 37°57' E 002°44'2020.2
2014-Jul-17 09:33N 38°04' E 003°08'2020.1
2014-Jul-17 08:33N 38°10' E 003°33'2020.0
2014-Jul-17 07:33N 38°12' E 003°58'2019.7
2014-Jul-17 06:33N 38°15' E 004°23'2519.5
2014-Jul-17 05:15N 38°19' E 004°55'1821.1
2014-Jul-17 04:25N 38°21' E 005°17'1818.6
2014-Jul-17 03:27N 38°24' E 005°40'1920.6
2014-Jul-17 02:31N 38°26' E 006°04'2519.4
2014-Jul-17 01:14N 38°28' E 006°36'1418.9
2014-Jul-17 00:29N 38°30' E 006°53'8019.8
2014-Jul-16 20:27N 38°41' E 008°35'1818.3
2014-Jul-16 19:28N 38°45' E 008°57'1719.2
2014-Jul-16 18:33N 39°00' E 009°09'1010.4
2014-Jul-16 17:33N 39°11' E 009°06'3 2.7
2014-Jul-16 16:33N 39°13' E 009°04'0 0.0
2014-Jul-16 15:32N 39°13' E 009°04'0 0.0
2014-Jul-16 14:33N 39°13' E 009°04'0 0.0
2014-Jul-16 13:33N 39°13' E 009°04'0 0.0
2014-Jul-16 12:33N 39°13' E 009°04'0 0.0
2014-Jul-16 11:33N 39°13' E 009°04'0 0.0
2014-Jul-16 10:33N 39°13' E 009°04'0 0.0
2014-Jul-16 09:33N 39°13' E 009°04'0 0.0
2014-Jul-16 08:33N 39°13' E 009°04'0 0.0
2014-Jul-16 07:33N 39°13' E 009°04'0 0.0
2014-Jul-16 06:33N 39°13' E 009°04'0 0.0
2014-Jul-16 05:33N 39°13' E 009°04'1 0.5
2014-Jul-16 04:33N 39°13' E 009°04'6 5.7
2014-Jul-16 03:33N 39°08' E 009°06'1211.7
2014-Jul-16 02:33N 39°01' E 009°19'1413.7
2014-Jul-16 01:33N 38°54' E 009°34'2019.6
2014-Jul-16 00:33N 38°45' E 009°56'2019.6
2014-Jul-15 23:33N 38°34' E 010°17'3919.7
2014-Jul-15 21:32N 38°12' E 010°59'11919.5
2014-Jul-15 15:26N 37°08' E 013°05'1718.7
2014-Jul-15 14:33N 36°59' E 013°23'1919.1
2014-Jul-15 13:33N 36°50' E 013°44'2019.6
2014-Jul-15 12:34N 36°41' E 014°05'2019.5
2014-Jul-15 11:33N 36°31' E 014°26'1919.4
2014-Jul-15 10:33N 36°23' E 014°48'  
Track history (hours):
 
Tides and Currents Weather Stations Pressure Air Temp Water Temp Dewpoint Dewpoint Depression Visibility Wind Speed Wind Dir Waves Ship Positions

APL Coral

More information available from US FCC via Universal Licensing System and Coast Guard Vessel Documentation Center.

Last reported at 2014-Jul-24 03:13 UTC. Time now 2014-Jul-24 12:59 UTC.
Position N 43°59' W 061°48'.

Length 275 m; draft 13 m.

Type: Cargo ship. MMSI: 367478280.

Date/timePositionNaut miles runAvg speedWind from/ knotsBaromVisibWave heightAir tempDewpointWater temp
2014-Jul-24 03:13N 43°59' W 061°48'  
2014-Jul-18 19:23N 36°33' W 009°52'2519.3
2014-Jul-18 18:04N 36°20' W 009°24'6718.9
2014-Jul-18 14:34N 35°58' W 008°06'2019.5
2014-Jul-18 13:33N 35°58' W 007°42'2019.7
2014-Jul-18 12:32N 35°58' W 007°17'1919.5
2014-Jul-18 11:33N 35°59' W 006°54'7318.0
2014-Jul-18 07:31N 36°01' W 005°24'16918.8
2014-Jul-17 22:32N 36°30' W 001°57'2920.3
2014-Jul-17 21:06N 36°40' W 001°23'1319.9
2014-Jul-17 20:28N 36°45' W 001°09'10219.9
2014-Jul-17 15:20N 37°22' E 000°51'3720.2
2014-Jul-17 13:31N 37°36' E 001°34'1920.1
2014-Jul-17 12:33N 37°42' E 001°57'2020.1
2014-Jul-17 11:33N 37°50' E 002°21'2020.1
2014-Jul-17 10:33N 37°57' E 002°44'2020.2
2014-Jul-17 09:33N 38°04' E 003°08'2020.1
2014-Jul-17 08:33N 38°10' E 003°33'2020.0
2014-Jul-17 07:33N 38°12' E 003°58'2019.7
2014-Jul-17 06:33N 38°15' E 004°23'2519.5
2014-Jul-17 05:15N 38°19' E 004°55'1821.1
2014-Jul-17 04:25N 38°21' E 005°17'1818.6
2014-Jul-17 03:27N 38°24' E 005°40'1920.6
2014-Jul-17 02:31N 38°26' E 006°04'2519.4
2014-Jul-17 01:14N 38°28' E 006°36'1418.9
2014-Jul-17 00:29N 38°30' E 006°53'8019.8
2014-Jul-16 20:27N 38°41' E 008°35'1818.3
2014-Jul-16 19:28N 38°45' E 008°57'1719.2
2014-Jul-16 18:33N 39°00' E 009°09'1010.4
2014-Jul-16 17:33N 39°11' E 009°06'3 2.7
2014-Jul-16 16:33N 39°13' E 009°04'0 0.0
2014-Jul-16 15:32N 39°13' E 009°04'0 0.0
2014-Jul-16 14:33N 39°13' E 009°04'0 0.0
2014-Jul-16 13:33N 39°13' E 009°04'0 0.0
2014-Jul-16 12:33N 39°13' E 009°04'0 0.0
2014-Jul-16 11:33N 39°13' E 009°04'0 0.0
2014-Jul-16 10:33N 39°13' E 009°04'0 0.0
2014-Jul-16 09:33N 39°13' E 009°04'0 0.0
2014-Jul-16 08:33N 39°13' E 009°04'0 0.0
2014-Jul-16 07:33N 39°13' E 009°04'0 0.0
2014-Jul-16 06:33N 39°13' E 009°04'0 0.0
2014-Jul-16 05:33N 39°13' E 009°04'1 0.5
2014-Jul-16 04:33N 39°13' E 009°04'6 5.7
2014-Jul-16 03:33N 39°08' E 009°06'1211.7
2014-Jul-16 02:33N 39°01' E 009°19'1413.7
2014-Jul-16 01:33N 38°54' E 009°34'2019.6
2014-Jul-16 00:33N 38°45' E 009°56'2019.6
2014-Jul-15 23:33N 38°34' E 010°17'3919.7
2014-Jul-15 21:32N 38°12' E 010°59'11919.5
2014-Jul-15 15:26N 37°08' E 013°05'1718.7
2014-Jul-15 14:33N 36°59' E 013°23'1919.1
2014-Jul-15 13:33N 36°50' E 013°44'2019.6
2014-Jul-15 12:34N 36°41' E 014°05'2019.5
2014-Jul-15 11:33N 36°31' E 014°26'1919.4
2014-Jul-15 10:33N 36°23' E 014°48'  

Dump ship's entire track history